Showing default

IRIDIUM 122, 42957

Orbit data source: Space-Track

IRIDIUM 122, 42957 is a payload satellite owned by Iridium (US) in LEO that was launched on Mon, 09 Oct 2017 UTC via an FALCON 9 launch vehicle from the Air Force Western Test Range (AFWTR). Payload-class satellites include a variety of spacecraft equipped with specific instruments for various scientific and technological missions. These include communications satellites like Starlink; space stations such as the ISS; scientific satellites like the Hubble; Earth observation satellites from companies like Planet Labs, Umbra, and HawkEye 360; GPS; miniature CubeSats for education and research; and military/defense satellites.

Loading next visibility...
Identifier
42957, 2017-061C
Orbit
LEO
Last TLE update
9 hours ago
Origin
Manufacturer
OATK SSG Gilbert
Mission
Operational Commercial Communications
Bus & Motor
ELITEBUS, Unknown motor
Mass
860 kg wet, 700 kg dry
Launch date (UTC)
2017-10-09 (8 years ago)
Launch vehicle
FALCON 9
Launch site
Air Force Western Test Range (AFWTR)
Object type
Payload
Rocket body
Debris
Shape & HBR
Trap Box + 2 Pan, 9.4 m
Radar Cross Section
14.423 m², Large (>1 m²)

Expand to show TLE details & history

TLE from 9 hours ago
0 IRIDIUM 122
1 42957U 17061C   25181.91831850  .00000027  00000-0  24091-5 0  9994
2 42957  86.3994 171.9970 0002370  85.9615 274.1851 14.34217661404436
Epoch: 2025-06-30T22:02Z
TLE epoch observation values (Epoch: 2025-06-30T22:02:22.718Z)
Latitude
-0.00009°
Longitude
-77.8189°
Altitude
780.595 km
Speed
7.464 km/s
True Right ascension
11h 27m 59s
True Declination
0° 00' 00"
Sunlit
Object was in daylight at epoch
Visualization orbit readout
Latitude
57.63743°
Longitude
96.35722°
Altitude
786.104 km
Speed
7.467 km/s
Apparent Right ascension
03h 32m 02s
Apparent Declination
21° 45' 20"
Sunlit
Object is in daylight
Visualization observer readout
Local Sidereal Time
18:36:40
Azimuth
43.86° NE
Elevation
-14.809°
Doppler factor
1
Orbital elements
Apogee altitude
776.327 km
Perigee altitude
772.937 km
Semi-major axis
7,152.769 km
Eccentricity
0.00024
Inclination
86.3994°
RAAN
171.997°
Arg. of periapsis
85.9615°
True anomaly
Unknown
Mean anomaly
274.1851°
Eccentric anomaly
Unknown
Mean motion
3.58783 °/min
Orbital period
100.34 mins
BSTAR
0.0000024091
Loading maneuver chart data...
Loading SW <> Apogee altitude chart data...
Loading historical data...
Loading historical data...
Loading historical data...
Loading historical data...
Loading historical data...
Loading historical data...
Loading historical data...

IRIDIUM 122 Visibility forecast

Observer location: undefined°, undefined°

Span
Click to sort rows by Start time (UTC) header in descending order
Start Az.
Max El. time (UTC)
Max El. Az.
Max El.
End time (UTC)
End Az.
6 mins2025-07-01 10:20:47.512Z34.168° NE2025-07-01 10:23:47.512Z71.039° E17.761°2025-07-01 10:26:47.512Z111.724° ESE
8 mins2025-07-01 12:01:47.512Z337.88° N2025-07-01 12:04:47.512Z284.744° WNW35.952°2025-07-01 12:09:47.512Z201.414° SSW
8 mins2025-07-01 23:16:47.512Z147.82° SSE2025-07-01 23:20:47.512Z78.9° E32.128°2025-07-01 23:24:47.512Z20.907° NNE
6 mins2025-07-02 00:58:47.512Z244.056° WSW2025-07-02 01:01:47.512Z288.972° WNW20.69°2025-07-02 01:04:47.512Z328.232° NNW
|